DateTimeUTC,F1_A11,F1_S11,BsB_S11,BsG_S11,BsR_S11,BbsB_S11,BbsG_S11,BbsR_S11,BaB_A11,BaG_A11,BaR_A11,Tu_S11,T_S11,Uu_S11,U_S11,P_S11,T1_A11
2021-01-06T16:00:00Z,00000200,21000000,,,,,,,-000.25,-000.21,-000.02,14.9,22.1,,00.0,0637.9,30.7
2021-01-06T16:01:00Z,00000200,21000000,,,,,,,0000.29,-000.05,-000.11,14.9,22.1,,00.0,0637.9,30.7
2021-01-06T16:02:00Z,00000200,21000000,,,,,,,0000.02,0000.11,0000.01,14.8,22.1,,00.0,0637.9,30.7
2021-01-06T16:03:00Z,00000200,61000000,,,,,,,0000.24,-000.07,0000.31,14.8,22.1,,00.0,0637.9,30.7
2021-01-06T16:04:00Z,00000200,41000000,0000.38,0000.29,0000.09,0000.05,0000.19,0000.10,0000.16,0000.25,0000.05,15.0,21.8,,00.0,0638.7,30.7
2021-01-06T16:05:00Z,00000200,01000000,0000.12,0000.12,-000.08,0000.15,0000.17,0000.05,0000.03,0000.52,0000.06,15.0,21.8,,00.0,0638.8,30.7
2021-01-06T16:06:00Z,00000200,01000000,-000.70,-000.01,-000.07,-000.06,0000.06,0000.07,0000.38,0000.02,0000.33,15.1,21.8,,00.0,0638.8,30.7
2021-01-06T16:07:00Z,00000200,01000000,0000.40,0000.17,-000.20,0000.17,0000.12,0000.31,-000.22,-000.20,0000.06,15.1,21.8,,00.0,0638.8,30.7
2021-01-06T16:08:00Z,00000200,01000000,-000.13,-000.06,-000.08,-000.45,0000.31,0000.14,0000.02,0000.03,-000.40,15.2,21.8,,00.0,0638.8,30.7
2021-01-06T16:09:00Z,00000200,01000000,0000.62,-000.12,0000.23,-000.54,-000.07,0000.23,0000.12,-000.14,0000.27,15.2,21.8,,00.0,0638.8,30.7
2021-01-06T16:10:00Z,00000200,01000000,-000.15,-000.01,0000.13,-000.49,0000.16,0000.12,-000.25,-000.00,-000.04,15.3,21.9,,00.0,0638.8,30.7
2021-01-06T16:11:00Z,00000200,01000000,-000.28,0000.34,-000.06,-000.13,-000.01,0000.17,0000.19,0000.33,0000.02,15.3,21.9,,00.0,0638.8,30.7
2021-01-06T16:12:00Z,00000200,01000000,-000.06,-000.12,-000.23,0000.47,-000.23,-000.12,0000.40,0000.13,0000.27,15.4,21.9,,00.0,0638.8,30.7
2021-01-06T16:13:00Z,00000200,01000000,-000.40,-000.04,0000.01,0000.15,-000.03,0000.07,-000.09,0000.36,0000.19,15.4,21.9,,00.0,0638.8,30.7
2021-01-06T16:14:00Z,00000200,01000000,-000.50,0000.18,0000.04,-000.13,-000.04,0000.09,0000.28,0000.23,-000.13,15.4,21.9,,00.0,0638.8,30.7
2021-01-06T16:15:00Z,00000200,01000000,-000.42,-000.20,-000.29,0000.29,-000.02,0000.01,0000.10,-000.05,0000.34,15.5,21.9,,00.0,0638.7,30.7
2021-01-06T16:16:00Z,00000200,01000000,0000.19,-000.25,-000.05,0000.05,-000.04,-000.28,0000.13,0000.11,0000.06,15.5,21.9,,00.0,0638.7,30.7
2021-01-06T16:17:00Z,00000200,01000000,0000.45,-000.18,-000.07,-000.61,0000.11,0000.15,0000.19,-000.24,0000.00,15.5,21.9,,00.0,0638.6,30.7
2021-01-06T16:18:00Z,00000200,01000000,-000.16,-000.04,-000.23,-000.24,-000.11,0000.11,0000.04,0000.55,0000.19,15.5,21.9,,00.0,0638.6,30.7
2021-01-06T16:19:00Z,00000200,01000000,-001.09,0000.12,-000.04,-000.57,-000.18,0000.10,0000.30,0000.11,-000.07,15.6,21.9,,00.0,0638.6,30.7
2021-01-06T16:20:00Z,00000200,01000000,-000.32,0000.23,-000.01,0000.14,0000.10,0000.08,0000.10,0000.16,0000.32,15.6,21.9,,00.0,0638.6,30.7
2021-01-06T16:21:00Z,00000200,01000000,-000.46,0000.22,-000.05,-000.14,-000.03,-000.02,-000.19,-000.06,0000.12,15.6,22.0,,00.0,0638.7,30.7
2021-01-06T16:22:00Z,00000200,01000000,0000.22,0000.22,0000.25,-000.13,-000.05,0000.05,0000.06,0000.33,-000.21,15.7,22.0,,00.0,0638.7,30.7
2021-01-06T16:23:00Z,00000200,01000000,0001.13,0000.13,-000.09,0000.31,0000.12,0000.25,0000.43,0000.14,-000.09,15.7,22.0,,00.0,0638.8,30.7
2021-01-06T16:24:00Z,00000200,01000000,0000.04,0000.03,0000.04,-000.23,-000.31,0000.04,-000.29,-000.35,0000.22,15.8,22.1,,00.0,0638.8,30.7
2021-01-06T16:25:00Z,00000200,01000000,0000.18,0000.26,-000.40,-000.20,0000.03,0000.08,0000.25,-000.13,0000.07,15.8,22.1,,00.0,0638.8,30.7
2021-01-06T16:26:00Z,00000200,01000000,-000.11,-000.05,-000.06,-000.18,0000.09,-000.16,-000.23,0000.54,-000.18,15.9,22.1,,00.0,0638.9,30.8
2021-01-06T16:27:00Z,00000200,01000000,0000.17,-000.03,0000.11,-000.18,-000.14,-000.00,-000.06,-000.26,0000.31,15.9,22.1,,00.0,0638.9,30.7
2021-01-06T16:28:00Z,00000200,01000000,0000.13,0000.22,0000.12,0000.58,-000.07,0000.24,0000.08,-000.46,-000.73,15.9,22.1,,00.0,0638.9,30.7
2021-01-06T16:29:00Z,00000200,01000000,0000.32,0000.09,0000.17,-000.03,0000.15,0000.28,-000.00,0000.46,0000.39,15.8,22.1,,00.0,0638.9,30.7
2021-01-06T16:30:00Z,00000200,01000000,-000.77,0000.14,0000.03,0000.17,0000.00,0000.04,0000.07,-000.03,0000.00,15.7,22.1,,00.0,0638.9,30.7
2021-01-06T16:31:00Z,00000200,01000000,-000.43,0000.01,-000.22,0000.26,-000.07,0000.12,-000.19,-000.24,-000.07,15.7,22.1,,00.0,0638.9,30.7
2021-01-06T16:32:00Z,00000200,01000000,0000.13,0000.08,0000.08,0000.02,-000.13,-000.26,0000.14,0000.11,-000.27,15.6,22.0,,00.0,0638.9,30.7
2021-01-06T16:33:00Z,00000200,01000000,-000.48,0000.33,-000.08,-000.38,-000.27,0000.32,0000.14,-000.09,0000.32,15.5,22.0,,00.0,0638.9,30.7
2021-01-06T16:34:00Z,00000200,01000000,-000.29,-000.04,-000.07,-000.04,-000.01,0000.05,0000.27,0000.48,0000.23,15.5,22.0,,00.0,0638.9,30.7
2021-01-06T16:35:00Z,00000200,01000000,-000.05,0000.20,-000.29,-000.12,-000.18,0000.03,-000.21,-000.20,-000.41,15.5,22.0,,00.0,0638.9,30.7
2021-01-06T16:36:00Z,00000200,01000000,-000.15,0000.21,-000.05,0000.05,-000.13,0000.12,0000.30,-000.17,0000.62,15.6,22.0,,00.0,0638.9,30.8
2021-01-06T16:37:00Z,00000200,01000000,-000.28,-000.34,-000.01,-000.07,-000.05,0000.21,0000.07,0000.53,0000.16,15.6,22.0,,00.0,0638.9,30.8
2021-01-06T16:38:00Z,00000200,01000000,0000.56,0000.08,-000.19,0000.17,-000.04,-000.14,-000.07,-000.08,-000.07,15.7,22.1,,00.0,0638.9,30.8
2021-01-06T16:39:00Z,00000200,01000000,-000.42,0000.34,0000.17,-000.51,-000.02,0000.13,0000.12,0000.31,0000.01,15.7,22.1,,00.0,0638.9,30.8
2021-01-06T16:40:00Z,00000200,01000000,-000.65,0000.05,-000.22,-000.05,0000.00,0000.15,0000.28,-000.18,-000.13,15.7,22.1,,00.0,0638.9,30.8
2021-01-06T16:41:00Z,00000200,01000000,-001.34,0000.23,-000.12,0000.04,-000.03,0000.18,0000.02,0000.16,0000.47,15.6,22.1,,00.0,0638.9,30.7
2021-01-06T16:42:00Z,00000200,01000000,-000.09,0000.05,-000.02,-000.16,-000.13,0000.31,-000.22,0000.17,-000.37,15.6,22.0,,00.0,0638.9,30.7
2021-01-06T16:43:00Z,00000200,01000000,0000.68,-000.03,-000.02,-000.04,-000.07,0000.05,0000.04,-000.20,0000.11,15.5,22.0,,00.0,0638.9,30.7
2021-01-06T16:44:00Z,00000200,01000000,0000.27,-000.19,-000.01,-000.07,0000.03,0000.01,0000.15,-000.13,-000.47,15.4,22.0,,00.0,0638.8,30.7
2021-01-06T16:45:00Z,00000200,01000000,0000.02,0000.01,-000.16,0000.11,0000.17,0000.10,-000.26,0000.04,0000.20,15.4,21.9,,00.0,0638.8,30.7
2021-01-06T16:46:00Z,00000200,01000000,0000.16,0000.06,-000.09,0000.14,-000.20,-000.16,0000.54,0000.16,0000.32,15.3,21.9,,00.0,0638.8,30.6
2021-01-06T16:47:00Z,00000200,01000000,-000.52,-000.24,-000.03,-000.60,-000.08,-000.05,0000.21,0000.21,0000.08,15.2,21.9,,00.0,0638.9,30.6
2021-01-06T16:48:00Z,00000200,01000000,-000.35,0000.06,-000.43,0000.38,0000.07,0000.04,-000.60,-000.02,-000.30,15.2,21.8,,00.0,0638.9,30.6
2021-01-06T16:49:00Z,00000200,01000000,0000.92,-000.03,0000.03,0000.17,-000.12,0000.12,0000.53,0000.12,0000.45,15.2,21.8,,00.0,0638.9,30.7
2021-01-06T16:50:00Z,00000200,01000000,0000.43,-000.03,-000.07,-000.12,-000.09,-000.07,-000.24,0000.02,-000.06,15.3,21.8,,00.0,0638.9,30.7
2021-01-06T16:51:00Z,00000200,01000000,0000.05,0000.07,0000.05,0000.13,-000.14,-000.06,0000.20,0000.22,0000.15,15.3,21.8,,00.0,0638.9,30.7
2021-01-06T16:52:00Z,00000200,01000000,-000.58,0000.15,-000.10,0000.06,-000.10,-000.09,0000.25,0000.10,0000.02,15.4,21.9,,00.0,0639.0,30.7
2021-01-06T16:53:00Z,00000200,01000000,0000.17,0000.01,-000.06,-000.63,-000.03,0000.00,0000.03,-000.08,0000.26,15.4,21.9,,00.0,0639.0,30.8
2021-01-06T16:54:00Z,00000200,01000000,0000.36,-000.02,-000.05,-000.35,-000.07,0000.08,-000.09,0000.16,-000.01,15.5,21.9,,00.0,0639.0,30.8
2021-01-06T16:55:00Z,00000200,01000000,-000.40,-000.03,0000.10,0000.29,-000.12,0000.23,-000.04,0000.13,-000.25,15.4,21.9,,00.0,0639.0,30.7
2021-01-06T16:56:00Z,00000200,01000000,-000.52,-000.01,0000.26,0000.05,-000.14,-000.03,0000.06,-000.17,0000.33,15.4,21.9,,00.0,0639.0,30.7
2021-01-06T16:57:00Z,00000200,41000000,,,,,,,-000.50,-000.42,-000.65,15.5,21.9,,00.0,0639.0,30.7
2021-01-06T16:58:00Z,00000200,61000000,,,,,,,0000.05,-000.04,-000.01,15.0,22.0,,00.0,0638.1,30.7
2021-01-06T16:59:00Z,00000200,21000000,,,,,,,0000.29,0000.23,0000.04,14.9,22.1,,00.0,0638.1,30.7
